Radiation Dose at Monitoring Post of Fukushima Daini Nuclear Power Station
Date,Time,MP-1(microSv/h),MP-2(microSv/h),MP-3(microSv/h),MP-4(microSv/h),MP-5(microSv/h),MP-6(microSv/h),MP-7(microSv/h),Wind Direction,Wind Velocity(m/s),Rain
2016/12/20,00:00,0.383,0.232,0.402,0.373,0.343,0.193,0.166,west-southwest,4.0,No
2016/12/20,00:10,0.383,0.232,0.401,0.373,0.341,0.192,0.165,southwest,5.0,No
2016/12/20,00:20,0.385,0.233,0.400,0.372,0.340,0.191,0.165,southwest,5.3,No
2016/12/20,00:30,0.383,0.233,0.402,0.372,0.342,0.192,0.165,southwest,6.0,No
2016/12/20,00:40,0.383,0.232,0.399,0.373,0.341,0.193,0.165,southwest,6.3,No
2016/12/20,00:50,0.386,0.233,0.401,0.373,0.341,0.193,0.165,southwest,6.3,No
2016/12/20,01:00,0.387,0.234,0.403,0.373,0.344,0.193,0.165,southwest,6.4,No
2016/12/20,01:10,0.384,0.234,0.401,0.373,0.343,0.193,0.164,west-southwest,5.9,No
2016/12/20,01:20,0.385,0.233,0.400,0.372,0.341,0.193,0.165,southwest,2.1,No
2016/12/20,01:30,0.386,0.233,0.402,0.371,0.343,0.192,0.165,southwest,1.7,No
2016/12/20,01:40,0.385,0.234,0.402,0.372,0.342,0.193,0.165,south-southwest,1.5,No
2016/12/20,01:50,0.384,0.233,0.401,0.371,0.341,0.192,0.165,southwest,2.2,No
2016/12/20,02:00,0.386,0.233,0.402,0.373,0.343,0.192,0.165,southwest,4.8,No
2016/12/20,02:10,0.384,0.234,0.401,0.374,0.342,0.191,0.166,west-southwest,4.3,No
2016/12/20,02:20,0.384,0.232,0.401,0.373,0.341,0.193,0.165,southwest,4.3,No
2016/12/20,02:30,0.384,0.233,0.400,0.372,0.342,0.192,0.165,southwest,5.8,No
2016/12/20,02:40,0.382,0.233,0.401,0.372,0.342,0.193,0.165,west-southwest,5.8,No
2016/12/20,02:50,0.384,0.234,0.400,0.372,0.341,0.192,0.165,southwest,6.7,No
2016/12/20,03:00,0.383,0.233,0.401,0.372,0.343,0.192,0.165,west-southwest,5.9,No
2016/12/20,03:10,0.384,0.232,0.403,0.373,0.342,0.192,0.165,southwest,7.4,No
2016/12/20,03:20,0.384,0.232,0.399,0.372,0.341,0.193,0.166,southwest,4.8,No
2016/12/20,03:30,0.383,0.234,0.401,0.371,0.342,0.193,0.165,southwest,5.5,No
2016/12/20,03:40,0.385,0.233,0.401,0.372,0.343,0.193,0.165,southwest,7.2,No
2016/12/20,03:50,0.386,0.233,0.400,0.372,0.341,0.193,0.165,southwest,7.9,No
2016/12/20,04:00,0.385,0.233,0.401,0.372,0.344,0.192,0.165,southwest,6.4,No
2016/12/20,04:10,0.385,0.233,0.402,0.374,0.343,0.193,0.165,south-southwest,4.0,No
2016/12/20,04:20,0.386,0.234,0.400,0.372,0.342,0.193,0.165,southwest,1.2,No
2016/12/20,04:30,0.383,0.233,0.403,0.373,0.343,0.192,0.165,southeast,0.6,No
2016/12/20,04:40,0.385,0.233,0.402,0.372,0.342,0.193,0.165,south,0.9,No
2016/12/20,04:50,0.386,0.233,0.401,0.372,0.341,0.192,0.165,west-southwest,1.1,No
2016/12/20,05:00,0.385,0.233,0.401,0.372,0.342,0.193,0.165,north-northwest,4.0,No
2016/12/20,05:10,0.386,0.232,0.401,0.372,0.341,0.194,0.165,north,5.1,No
2016/12/20,05:20,0.385,0.233,0.400,0.373,0.342,0.193,0.165,north-northwest,3.6,No
2016/12/20,05:30,0.383,0.234,0.401,0.372,0.344,0.194,0.165,northwest,4.0,No
2016/12/20,05:40,0.385,0.233,0.402,0.373,0.343,0.191,0.164,west,5.9,No
2016/12/20,05:50,0.385,0.233,0.400,0.372,0.342,0.193,0.166,west,6.7,No
2016/12/20,06:00,0.384,0.232,0.401,0.371,0.344,0.192,0.165,west,6.5,No
2016/12/20,06:10,0.385,0.233,0.400,0.372,0.343,0.192,0.165,west,6.0,No
2016/12/20,06:20,0.384,0.234,0.401,0.370,0.342,0.192,0.165,west,8.4,No
2016/12/20,06:30,0.383,0.232,0.401,0.371,0.344,0.193,0.165,west,10.1,No
2016/12/20,06:40,0.384,0.232,0.402,0.372,0.341,0.192,0.165,west,6.7,No
2016/12/20,06:50,0.384,0.234,0.400,0.371,0.342,0.191,0.164,west,5.5,No
2016/12/20,07:00,0.384,0.232,0.400,0.371,0.343,0.192,0.164,west,5.0,No
2016/12/20,07:10,0.384,0.234,0.399,0.371,0.340,0.192,0.165,west,3.8,No
2016/12/20,07:20,0.384,0.232,0.401,0.370,0.343,0.191,0.164,west-northwest,4.8,No
2016/12/20,07:30,0.384,0.233,0.403,0.372,0.342,0.192,0.165,west,7.0,No
2016/12/20,07:40,0.385,0.233,0.400,0.370,0.341,0.192,0.165,west,8.0,No
2016/12/20,07:50,0.384,0.232,0.402,0.370,0.343,0.192,0.165,west,6.4,No
2016/12/20,08:00,0.382,0.232,0.401,0.371,0.341,0.192,0.163,west-southwest,5.3,No
2016/12/20,08:10,0.385,0.233,0.400,0.369,0.341,0.193,0.163,west,3.6,No
2016/12/20,08:20,0.384,0.232,0.402,0.372,0.342,0.191,0.164,west,2.2,No
2016/12/20,08:30,0.383,0.232,0.398,0.370,0.342,0.192,0.165,north-northeast,1.8,No
2016/12/20,08:40,0.386,0.234,0.402,0.371,0.342,0.191,0.165,west-northwest,1.1,No
2016/12/20,08:50,0.384,0.233,0.402,0.369,0.341,0.192,0.164,west,1.7,No
2016/12/20,09:00,0.383,0.233,0.399,0.372,0.341,0.192,0.165,west-southwest,1.8,No
2016/12/20,09:10,0.385,0.232,0.403,0.371,0.343,0.192,0.164,west,1.2,No
2016/12/20,09:20,0.385,0.233,0.401,0.371,0.341,0.192,0.165,west,1.1,No
2016/12/20,09:30,0.384,0.232,0.399,0.369,0.340,0.191,0.164,southwest,0.9,No
2016/12/20,09:40,0.384,0.233,0.402,0.374,0.341,0.193,0.164,west-southwest,1.7,No
2016/12/20,09:50,0.383,0.231,0.401,0.368,0.339,0.192,0.164,west,5.6,No
2016/12/20,10:00,0.383,0.234,0.401,0.373,0.341,0.193,0.164,west-southwest,4.5,No
2016/12/20,10:10,0.385,0.231,0.402,0.369,0.339,0.192,0.165,west-southwest,4.6,No
2016/12/20,10:20,0.382,0.232,0.399,0.371,0.339,0.193,0.164,west-southwest,3.5,No
2016/12/20,10:30,0.382,0.231,0.403,0.371,0.341,0.192,0.164,west-southwest,3.3,No
2016/12/20,10:40,0.380,0.233,0.398,0.371,0.339,0.192,0.165,west-southwest,3.2,No
2016/12/20,10:50,0.382,0.231,0.401,0.370,0.342,0.192,0.164,west,3.0,No
2016/12/20,11:00,0.381,0.233,0.399,0.370,0.338,0.192,0.165,west,2.3,No
2016/12/20,11:10,0.382,0.232,0.402,0.371,0.341,0.193,0.163,northwest,3.3,No
2016/12/20,11:20,0.382,0.231,0.399,0.369,0.341,0.192,0.165,northwest,5.0,No
2016/12/20,11:30,0.383,0.233,0.400,0.373,0.338,0.192,0.164,west-northwest,4.8,No
2016/12/20,11:40,0.385,0.231,0.399,0.368,0.342,0.193,0.166,northwest,4.1,No
2016/12/20,11:50,0.381,0.234,0.399,0.372,0.340,0.192,0.164,west,3.0,No
2016/12/20,12:00,0.385,0.231,0.398,0.370,0.340,0.192,0.165,north,2.0,No
2016/12/20,12:10,0.382,0.233,0.401,0.369,0.341,0.192,0.166,north,1.9,No
2016/12/20,12:20,0.379,0.231,0.398,0.372,0.339,0.193,0.163,north-northeast,1.6,No
2016/12/20,12:30,0.384,0.233,0.398,0.369,0.341,0.193,0.165,north-northwest,0.5,No
2016/12/20,12:40,0.381,0.232,0.399,0.368,0.341,0.193,0.164,west-southwest,1.7,No
2016/12/20,12:50,0.383,0.232,0.399,0.373,0.339,0.192,0.165,north-northeast,1.9,No
2016/12/20,13:00,0.382,0.235,0.401,0.368,0.341,0.193,0.165,north-northeast,2.6,No
2016/12/20,13:10,0.382,0.232,0.397,0.371,0.340,0.191,0.164,northwest,4.6,No
2016/12/20,13:20,0.384,0.234,0.400,0.372,0.342,0.193,0.165,west-northwest,5.0,No
2016/12/20,13:30,0.383,0.231,0.400,0.371,0.340,0.192,0.164,west-northwest,4.6,No
2016/12/20,13:40,0.385,0.233,0.401,0.373,0.342,0.192,0.165,west-northwest,3.8,No
2016/12/20,13:50,0.384,0.233,0.401,0.373,0.340,0.192,0.165,north,3.2,No
2016/12/20,14:00,0.384,0.234,0.402,0.374,0.343,0.193,0.165,north-northeast,3.5,No
2016/12/20,14:10,0.386,0.234,0.401,0.371,0.341,0.192,0.164,north-northeast,2.7,No
2016/12/20,14:20,0.383,0.233,0.402,0.373,0.341,0.193,0.165,north,3.3,No
2016/12/20,14:30,0.385,0.233,0.399,0.372,0.340,0.192,0.164,north,3.7,No
2016/12/20,14:40,0.383,0.233,0.403,0.372,0.341,0.192,0.164,north,3.6,No
2016/12/20,14:50,0.383,0.233,0.400,0.373,0.342,0.194,0.166,north,3.9,No
2016/12/20,15:00,0.384,0.232,0.403,0.373,0.341,0.193,0.164,north,3.6,No
2016/12/20,15:10,0.384,0.234,0.399,0.372,0.343,0.192,0.165,north,2.5,No
2016/12/20,15:20,0.384,0.233,0.401,0.372,0.341,0.194,0.165,north,3.0,No
2016/12/20,15:30,0.383,0.234,0.399,0.375,0.343,0.193,0.164,north-northwest,3.5,No
2016/12/20,15:40,0.384,0.233,0.401,0.371,0.340,0.192,0.165,north,4.5,No
2016/12/20,15:50,0.383,0.232,0.401,0.373,0.340,0.192,0.164,north,4.1,No
2016/12/20,16:00,0.383,0.233,0.400,0.371,0.341,0.192,0.165,north,3.7,No
2016/12/20,16:10,0.384,0.233,0.401,0.372,0.341,0.192,0.165,north-northwest,4.3,Yes
2016/12/20,16:20,0.383,0.234,0.400,0.372,0.343,0.193,0.165,north-northwest,4.4,Yes
2016/12/20,16:30,0.387,0.234,0.403,0.372,0.344,0.193,0.165,north-northwest,4.6,No
2016/12/20,16:40,0.383,0.234,0.401,0.372,0.341,0.193,0.166,northwest,3.1,Yes
2016/12/20,16:50,0.385,0.234,0.400,0.371,0.343,0.193,0.166,northwest,2.5,No
2016/12/20,17:00,0.384,0.233,0.401,0.376,0.342,0.193,0.166,north-northwest,3.3,Yes
2016/12/20,17:10,0.383,0.234,0.399,0.373,0.343,0.193,0.166,northwest,3.1,Yes
2016/12/20,17:20,0.385,0.235,0.403,0.373,0.343,0.193,0.166,northwest,4.8,Yes
2016/12/20,17:30,0.384,0.233,0.402,0.374,0.342,0.192,0.166,northwest,2.7,Yes
2016/12/20,17:40,0.385,0.233,0.402,0.372,0.342,0.193,0.167,north-northwest,3.3,Yes
2016/12/20,17:50,0.385,0.234,0.404,0.372,0.344,0.193,0.165,north,3.5,Yes
2016/12/20,18:00,0.382,0.234,0.401,0.374,0.342,0.193,0.166,north-northwest,2.8,Yes
2016/12/20,18:10,0.387,0.236,0.401,0.373,0.344,0.194,0.166,north-northwest,3.3,Yes
2016/12/20,18:20,0.386,0.234,0.403,0.375,0.343,0.195,0.168,northwest,3.9,Yes
2016/12/20,18:30,0.384,0.234,0.402,0.373,0.343,0.194,0.167,west-northwest,2.6,No
2016/12/20,18:40,0.385,0.234,0.403,0.373,0.343,0.194,0.166,northwest,3.3,No
2016/12/20,18:50,0.385,0.233,0.401,0.372,0.341,0.193,0.167,north,2.4,No
2016/12/20,19:00,0.384,0.232,0.402,0.375,0.342,0.193,0.166,north,1.7,No
2016/12/20,19:10,0.385,0.233,0.401,0.374,0.341,0.192,0.166,north-northwest,1.3,No
2016/12/20,19:20,0.382,0.234,0.400,0.371,0.340,0.193,0.166,north-northeast,2.1,No
2016/12/20,19:30,0.385,0.233,0.401,0.374,0.345,0.193,0.165,northeast,3.1,No
2016/12/20,19:40,0.386,0.235,0.401,0.372,0.341,0.191,0.165,north-northeast,2.8,No
2016/12/20,19:50,0.384,0.233,0.401,0.371,0.341,0.193,0.165,north-northeast,3.8,No
2016/12/20,20:00,0.383,0.233,0.400,0.373,0.344,0.192,0.165,north,1.9,No
2016/12/20,20:10,0.384,0.233,0.400,0.371,0.341,0.193,0.165,north,2.0,No
2016/12/20,20:20,0.383,0.233,0.403,0.373,0.342,0.192,0.166,north,3.1,No
2016/12/20,20:30,0.383,0.232,0.401,0.374,0.340,0.191,0.166,north-northwest,4.2,No
2016/12/20,20:40,0.387,0.232,0.400,0.370,0.340,0.192,0.164,north-northwest,3.7,No
2016/12/20,20:50,0.383,0.231,0.400,0.371,0.342,0.192,0.165,west-northwest,4.5,No
2016/12/20,21:00,0.383,0.232,0.400,0.372,0.342,0.191,0.165,west-northwest,2.4,No
2016/12/20,21:10,0.384,0.231,0.401,0.373,0.341,0.192,0.165,north-northwest,3.5,No
2016/12/20,21:20,0.384,0.232,0.402,0.374,0.343,0.192,0.165,northwest,3.3,No
2016/12/20,21:30,0.387,0.233,0.399,0.373,0.341,0.192,0.165,west-northwest,2.3,No
2016/12/20,21:40,0.384,0.233,0.402,0.373,0.341,0.193,0.165,north-northwest,2.8,No
2016/12/20,21:50,0.383,0.233,0.399,0.373,0.341,0.192,0.164,north-northwest,2.4,No
2016/12/20,22:00,0.384,0.232,0.401,0.371,0.342,0.192,0.165,northwest,4.1,No
2016/12/20,22:10,0.385,0.233,0.402,0.374,0.341,0.192,0.165,northwest,3.8,No
2016/12/20,22:20,0.385,0.231,0.401,0.371,0.341,0.193,0.166,northwest,3.4,No
2016/12/20,22:30,0.384,0.233,0.402,0.372,0.341,0.192,0.164,north-northwest,3.6,No
2016/12/20,22:40,0.385,0.232,0.402,0.373,0.341,0.192,0.166,north,5.4,No
2016/12/20,22:50,0.384,0.232,0.400,0.372,0.341,0.192,0.165,north-northwest,5.1,No
2016/12/20,23:00,0.383,0.233,0.402,0.372,0.341,0.192,0.165,north,4.7,No
2016/12/20,23:10,0.387,0.232,0.401,0.372,0.341,0.192,0.165,north,5.0,No
2016/12/20,23:20,0.384,0.232,0.400,0.372,0.343,0.191,0.164,north-northwest,3.7,No
2016/12/20,23:30,0.383,0.233,0.403,0.372,0.341,0.191,0.165,northwest,3.6,No
2016/12/20,23:40,0.384,0.232,0.400,0.372,0.341,0.192,0.165,northwest,3.5,No
2016/12/20,23:50,0.385,0.232,0.399,0.372,0.343,0.192,0.165,west-northwest,3.6,No
